Location: Temple Hill
(37.3073°N, 88.6303°W)
Time: 16:12:29
(UTC+00:00)

Daily predictions for brighter satellites

Satellite Brightness Start Highest point End
(mag) Time Altitude Azimuth Time Altitude Azimuth Time Altitude Azimuth
Cosmos 2228 3.1 12:02:30 10° SSW 12:06:48 56° W 12:11:09 10° N
ATLAS 3B R/B 4.0 12:03:54 10° NNW 12:09:59 34° NE 12:16:11 10° ESE
USA 215 3.5 12:03:48 10° SSE 12:10:10 55° SW 12:16:29 10° NW
STARLINK 3.6 12:08:22 10° WSW 12:12:08 51° NW 12:15:55 10° NE
Cosmos 2341 Rocket 4.1 12:07:13 10° NNW 12:13:19 56° W 12:19:21 10° SSW
Cosmos 2227 4.4 12:11:48 10° NNW 12:17:29 76° ENE 12:23:05 10° SSE
NOSS 3-2 (A) 4.2 12:10:30 10° NW 12:18:19 82° WSW 12:26:53 10° SSE
STARLINK-46 1.7 12:18:35 16° NW 12:20:04 87° NE 12:22:06 10° SE
SL-8 Rocket 4.0 12:13:56 10° NNW 12:20:06 70° W 12:26:12 10° S
Okean-O 4.2 12:16:11 10° NNE 12:20:23 41° E 12:24:34 10° S
Cosmos 1953 Rocket 3.6 12:17:26 10° NNW 12:21:49 60° W 12:26:07 10° S
Cosmos 2344 4.5 12:17:46 10° W 12:23:56 26° NW 12:30:37 10° NNE
STARLINK-34 4.1 12:21:03 10° WSW 12:24:49 37° NW 12:28:35 10° NNE
Okean O Rocket 2.4 12:21:15 10° N 12:25:04 29° WNW 12:28:53 10° SW
Cosmos 1758 Rocket 4.4 12:23:15 10° NNW 12:27:01 29° W 12:30:49 10° SSW
STARLINK-24 4.2 12:23:20 10° WSW 12:27:04 36° NW 12:30:48 10° NNE
Cosmos 1328 3.8 12:23:46 10° NNW 12:27:43 63° W 12:31:38 10° S
STARLINK-81 4.1 12:24:10 10° WSW 12:27:56 38° NW 12:31:43 10° NE
Helios 1A Rocket 3.7 12:25:39 10° N 12:29:17 31° WNW 12:32:55 10° SW
STARLINK-54 4.2 12:26:05 10° WSW 12:29:47 34° NW 12:33:30 10° NNE
STARLINK-77 4.2 12:27:30 10° WSW 12:31:14 36° NW 12:34:59 10° NNE
STARLINK 1028 3.8 12:28:59 10° SSW 12:31:47 48° SE 12:34:37 10° ENE
STARLINK 1021 3.8 12:29:14 10° SSW 12:32:02 48° SE 12:34:52 10° ENE
Cosmos 923 Rocket 4.4 12:27:13 10° SW 12:32:08 40° WNW 12:37:08 10° N
STARLINK 1019 3.8 12:29:27 10° SSW 12:32:15 48° SE 12:35:03 10° ENE
STARLINK 1012 3.8 12:29:39 10° SSW 12:32:27 49° SE 12:35:17 10° ENE
STARLINK 1035 4.3 12:29:21 10° SSW 12:32:30 44° SE 12:35:40 10° ENE
STARLINK 1010 3.7 12:29:51 10° SSW 12:32:40 49° SE 12:35:30 10° ENE
STARLINK 1026 3.7 12:30:06 10° SSW 12:32:55 49° SE 12:35:44 10° ENE
STARLINK-25 4.2 12:29:13 10° WSW 12:32:55 35° NW 12:36:39 10° NNE
STARLINK 1013 3.7 12:30:18 10° SSW 12:33:08 50° SE 12:35:58 10° ENE
STARLINK 1009 3.7 12:30:32 10° SSW 12:33:21 50° SE 12:36:12 10° ENE
STARLINK 1015 3.7 12:30:46 10° SSW 12:33:34 50° SE 12:36:25 10° ENE
STARLINK 1016 3.7 12:30:59 10° SSW 12:33:48 51° SE 12:36:39 10° ENE
STARLINK 1008 3.6 12:31:13 10° SSW 12:34:02 51° SE 12:36:53 10° ENE
STARLINK 1014 3.6 12:31:24 10° SSW 12:34:14 51° SE 12:37:05 10° ENE
STARLINK 1027 4.0 12:31:06 10° SSW 12:34:18 51° SE 12:37:31 10° ENE
STARLINK 1025 3.6 12:31:40 10° SSW 12:34:30 52° SE 12:37:20 10° ENE
STARLINK 1017 3.6 12:31:51 10° SSW 12:34:42 52° SE 12:37:33 10° ENE
STARLINK-71 4.4 12:31:12 10° W 12:34:49 31° NNW 12:38:27 10° NNE
STARLINK 1023 3.6 12:32:06 10° SSW 12:34:56 53° SE 12:37:47 10° ENE
STARLINK 1007 3.6 12:32:20 10° SSW 12:35:10 53° SE 12:38:01 10° ENE
STARLINK 1048 3.6 12:32:32 10° SSW 12:35:22 53° SE 12:38:14 10° NE
STARLINK 1049 3.5 12:32:45 10° SSW 12:35:35 54° SE 12:38:28 10° NE
STARLINK 1051 3.5 12:32:58 10° SSW 12:35:48 54° SE 12:38:40 10° NE
STARLINK-79 4.3 12:32:33 10° W 12:36:13 33° NW 12:39:54 10° NNE
CENTAUR R/B 3.5 12:28:25 10° NNW 12:36:40 74° ENE 12:45:25 10° SE
ADEOS Rocket 2.9 12:32:15 10° S 12:37:40 58° W 12:43:08 10° NNW
CORIOLIS 4.1 12:32:22 10° N 12:37:44 81° WNW 12:43:04 10° SSW
STARLINK-78 4.4 12:34:18 10° W 12:37:56 32° NNW 12:41:35 10° NNE
CZ-3 R/B 2.8 12:26:56 10° W 12:39:12 38° SSW 12:43:35 10° SE
STARLINK-57 4.4 12:36:07 10° W 12:39:42 30° NNW 12:43:18 10° NNE
ATLAS 2AS CENTAUR R/B 3.3 12:32:15 10° SW 12:39:55 51° NW 12:47:42 10° NNE
STARLINK 1044 4.0 12:36:56 10° SSW 12:40:25 58° SE 12:43:55 10° NE
NOAA 12 4.2 12:35:15 10° NNE 12:40:34 87° ESE 12:45:53 10° SSW
Cosmos 2322 Rocket 2.2 12:36:42 10° SSW 12:42:21 79° WNW 12:48:04 10° NNE
ATLAS CENTAUR R/B 4.2 23:25:40 10° W 23:30:06 38° NNW 23:40:51 10° NE
YAOGAN 6 3.4 23:27:23 10° SE 23:30:38 30° ENE 23:33:52 10° NNE
Meteor 2-5 Rocket 4.4 23:29:03 10° SSW 23:34:29 60° W 23:39:59 10° N
H-2A R/B 3.4 23:34:43 10° S 23:38:28 61° W 23:42:17 10° NNW
Nadezhda 3 Rocket 4.1 23:36:16 10° N 23:42:25 54° E 23:48:35 10° SSE
FengYun 1-2 T 4.4 23:39:38 10° SE 23:45:01 50° ENE 23:50:28 10° N
Cosmos 2219 3.5 23:40:31 10° S 23:45:49 46° ESE 23:51:10 10° NE
Timation 2 Rocket 4.2 23:40:55 10° SSW 23:46:56 71° WNW 23:53:12 10° NNE
ATLAS 5 CENTAUR R/B 4.1 23:45:02 10° WNW 23:47:19 14° NW 23:49:45 10° N
SMAP 4.0 23:45:35 10° S 23:50:06 53° W 23:54:40 10° NNW
ADEOS Rocket 4.4 23:45:23 10° NE 23:50:36 23° E 23:56:06 10° SE
CZ-4 R/B 2.0 23:47:21 10° SE 23:50:57 33° ENE 23:54:37 10° N
Shenzhou-11 Module 3.5 23:52:53 10° SSW 23:54:55 19° SE 23:56:19 14° ESE
